Weather History for Kendall, FL

Change the Weather History Date:

Wednesday, November 6, 2013

  Actual Average Record
Temperature  
Mean Temperature 80 °F -  
Max Temperature 84 °F 82 °F 89 °F (1992)
Min Temperature 73 °F 64 °F 48 °F (2010)
Cooling Degree Days 14    
Growing Degree Days 30 (Base 50)    
Moisture  
Dew Point 70 °F    
Average Humidity 73    
Maximum Humidity 85    
Minimum Humidity 62    
Precipitation  
Precipitation 0.00 in - - ()
Sea Level Pressure  
Sea Level Pressure 30.02 in    
Wind  
Wind Speed 14 mph (ENE)    
Max Wind Speed 22 mph    
Max Gust Speed 26 mph    
Visibility 10 miles    
Events      
Averages and records for this station are not official NWS values.
T = Trace of Precipitation, MM = Missing Value Source: NWS Daily Summary

Daily Weather History Graph

Daily Weather History Graph

Search for Another Location

Airport:

Trip Planner

Search our weather history database for the weather conditions in past years. The results will help you decide how hot, cold, wet, or windy it might be!

Date:

Astronomy

Nov. 06, 2013 Rise Set
Actual Time 6:33 AM EST 5:37 PM EST
Civil Twilight 6:09 AM EST 6:00 PM EST
Nautical Twilight 5:42 AM EST 6:28 PM EST
Astronomical Twilight 5:14 AM EST 6:55 PM EST
Moon 9:38 AM EST (11/6) 8:46 PM EST (11/6)
Length of Visible Light 11h 51m
Length of Day
11h 03m
Waxing Crescent, 13% of the Moon is Illuminated
Nov 6
Waxing Crescent
Nov 10
First Quarter
Nov 17
Full
Nov 25
Last Quarter
Dec 2
New

Hourly Weather History & Observations

Time (EST) Temp. Heat Index Dew Point Humidity Pressure Visibility Wind Dir Wind Speed Gust Speed Precip Events Conditions
12:53 AM 78.1 °F - 70.0 °F 76% 30.02 in 10.0 mi East 17.3 mph 23.0 mph N/A   Overcast
1:53 AM 78.1 °F - 70.0 °F 76% 30.01 in 10.0 mi East 13.8 mph - N/A   Overcast
2:53 AM 77.0 °F - 70.0 °F 79% 30.00 in 10.0 mi East 13.8 mph - 0.00 in   Mostly Cloudy
3:53 AM 78.1 °F - 70.0 °F 76% 29.99 in 10.0 mi East 16.1 mph - N/A   Overcast
4:53 AM 78.1 °F - 70.0 °F 76% 30.00 in 10.0 mi East 12.7 mph - N/A   Scattered Clouds
5:53 AM 78.1 °F - 70.0 °F 76% 30.01 in 10.0 mi East 11.5 mph - N/A   Overcast
6:53 AM 78.1 °F - 71.1 °F 79% 30.03 in 10.0 mi East 12.7 mph - N/A   Overcast
7:53 AM 80.1 °F 83.6 °F 71.1 °F 74% 30.04 in 10.0 mi East 12.7 mph - N/A   Partly Cloudy
8:53 AM 82.0 °F 86.3 °F 71.1 °F 69% 30.05 in 10.0 mi East 21.9 mph 26.5 mph N/A   Partly Cloudy
9:53 AM 84.0 °F 88.4 °F 70.0 °F 63% 30.05 in 10.0 mi East 18.4 mph - N/A   Partly Cloudy
10:53 AM 84.0 °F 89.0 °F 71.1 °F 65% 30.05 in 10.0 mi East 19.6 mph 25.3 mph N/A   Scattered Clouds
11:53 AM 84.0 °F 89.0 °F 71.1 °F 65% 30.04 in 10.0 mi East 19.6 mph - N/A   Scattered Clouds
12:53 PM 84.0 °F 88.4 °F 70.0 °F 63% 30.02 in 10.0 mi East 17.3 mph 21.9 mph N/A   Scattered Clouds
1:53 PM 84.9 °F 90.1 °F 71.1 °F 63% 29.99 in 10.0 mi East 16.1 mph - N/A   Partly Cloudy
2:37 PM 84.2 °F 88.4 °F 69.8 °F 62% 30.00 in 10.0 mi East 15.0 mph - N/A   Mostly Cloudy
2:53 PM 84.0 °F 88.4 °F 70.0 °F 63% 29.99 in 10.0 mi East 13.8 mph - N/A   Mostly Cloudy
3:53 PM 82.9 °F 87.0 °F 70.0 °F 65% 29.99 in 10.0 mi East 15.0 mph - N/A   Partly Cloudy
4:53 PM 80.1 °F 82.9 °F 69.1 °F 69% 29.99 in 10.0 mi ENE 12.7 mph - N/A   Clear
5:53 PM 79.0 °F - 70.0 °F 74% 30.00 in 10.0 mi East 11.5 mph - N/A   Clear
6:53 PM 78.1 °F - 69.1 °F 74% 30.01 in 10.0 mi ENE 6.9 mph - N/A   Clear
7:53 PM 77.0 °F - 69.1 °F 76% 30.03 in 10.0 mi NE 5.8 mph - N/A   Clear
8:53 PM 77.0 °F - 69.1 °F 76% 30.04 in 10.0 mi NE 4.6 mph - N/A   Mostly Cloudy
9:04 PM 77.0 °F - 69.8 °F 78% 30.04 in 10.0 mi NE 5.8 mph - N/A   Scattered Clouds
9:53 PM 75.9 °F - 69.1 °F 79% 30.04 in 10.0 mi NNE 4.6 mph - N/A   Clear
10:53 PM 75.0 °F - 70.0 °F 84% 30.03 in 10.0 mi NE 4.6 mph - N/A   Clear
11:53 PM 73.9 °F - 69.1 °F 85% 30.02 in 10.0 mi NE 3.5 mph - N/A   Clear